Dewpoint
18 15 15 15 19 17 16 16 14 17 18 19 17 17 17 19 22 22 24 25 28 27 28 31 34 39 41 46 50 52 61 71 70 66 64 62 61 62 61 62 66 64 64 66
14 12 16 16 16 17 17 15 16 20 21 19 16 18 18 19 21 23 25 26 29 30 27 31 35 41 46 47 51 51 53 60 68 68 68 66 65 62 63 63 67 68 67 67
14 12 16 15 15 16 18 17 18 16 21 20 21 9 14 12 21 22 23 26 26 28 30 34 37 43 45 47 50 51 53 54 59 66 67 68 67 67 64 65 66 69 68 68
15 15 14 14 14 17 14 21 20 19 16 7 19 1 15 17 16 19 20 26 26 28 29 37 39 41 43 44 46 50 53 55 52 59 63 68 64 64 64 64 64 66 69 69
13 14 14 14 13 21 13 24 21 20 18 20 12 14 14 20 14 18 23 26 30 34 36 36 36 39 41 43 46 50 53 55 56 57 61 61 66 65 65 64 69 71 70 70
16 17 16 16 22 22 24 20 20 22 20 10 16 16 9 13 16 19 20 26 32 32 34 36 37 39 39 41 43 47 50 55 56 56 58 62 63 65 62 64 64 64 66 68
15 13 22 25 20 22 21 20 11 7 7 4 21 14 14 20 20 18 20 24 31 35 36 35 33 35 38 41 44 45 46 51 54 54 56 59 62 64 65 66 64 66 66 66
17 14 21 25 19 17 20 21 15 10 6 7 15 12 14 21 23 26 28 31 34 35 33 35 37 38 37 41 44 45 46 48 50 53 54 57 61 60 62 65 63 63 63 65
21 20 25 24 24 22 22 22 23 24 22 19 13 16 21 21 23 25 27 30 32 32 35 36 37 38 39 43 46 47 46 48 50 51 53 57 59 63 63 68 69 65 67 64
26 23 24 25 25 25 24 25 25 27 19 13 12 15 14 19 20 21 24 28 31 32 34 37 38 39 41 46 47 49 50 49 50 51 52 53 56 61 63 67 67 67 68 66
28 27 22 27 25 21 23 24 28 27 25 16 12 13 23 23 24 26 27 29 31 33 35 37 37 39 44 46 47 50 52 51 48 49 50 53 55 58 61 62 64 65 66 67
32 30 23 22 23 28 26 25 27 26 25 27 27 20 24 26 27 30 28 27 29 35 36 36 36 39 44 44 43 46 49 52 49 48 49 52 56 59 61 62 63 64 65 66
35 29 22 17 25 29 27 27 28 29 33 26 23 20 26 27 29 30 31 31 33 36 37 37 37 36 42 43 43 43 46 49 53 51 51 53 57 59 61 61 63 64 65 66
36 31 26 20 17 27 28 25 27 29 29 23 23 23 26 29 30 32 34 35 36 37 37 38 37 38 43 45 45 43 43 48 52 56 57 56 58 61 61 62 63 64 65 66
35 30 29 27 27 27 27 27 27 27 27 26 25 24 26 28 31 34 35 36 36 35 35 37 37 41 43 43 45 46 44 48 52 55 57 59 61 62 61 62 64 65 66 66
37 32 32 27 28 28 27 27 27 28 28 28 28 30 31 33 34 33 35 34 34 35 35 36 38 41 42 43 46 47 46 50 53 56 57 60 62 61 62 64 65 65 66 67
35 33 27 19 27 28 23 24 25 26 28 28 27 28 32 32 33 34 34 35 35 34 36 37 40 40 43 46 48 50 50 52 53 56 57 61 63 61 62 64 64 65 66 68
32 30 30 26 28 20 22 29 29 29 30 31 31 31 33 34 36 35 34 36 37 36 37 38 38 43 47 48 49 50 51 52 53 55 57 63 62 61 62 64 64 65 67 68
33 32 30 27 26 25 22 33 34 32 30 33 33 33 35 37 35 32 34 36 38 41 40 39 41 45 47 48 50 51 51 52 52 57 58 62 62 62 63 64 65 66 67 66
34 35 33 31 25 20 26 37 38 37 29 36 35 35 37 33 30 30 34 37 41 41 40 40 42 45 47 49 51 51 51 51 55 57 59 63 63 63 64 64 65 65 66 64
31 31 28 26 28 28 32 37 39 31 33 39 39 39 38 35 34 37 38 41 41 42 42 44 45 46 48 50 51 50 52 54 55 58 61 63 63 64 64 64 64 63 62 60
31 30 30 31 29 25 38 36 33 37 40 41 41 37 36 35 35 36 39 39 40 42 43 44 45 47 48 50 50 51 53 55 56 57 61 62 63 63 63 63 62 61 59 60
30 35 34 34 35 36 38 39 42 42 42 40 37 35 35 36 38 39 38 39 41 42 43 45 46 47 49 50 52 53 54 56 58 59 61 62 62 62 62 61 60 59 59 58
31 35 35 33 33 34 38 40 41 41 39 38 36 35 37 37 38 38 39 41 41 42 43 45 46 48 49 51 52 54 56 58 59 60 61 61 61 61 61 60 61 60 58 57
32 35 35 35 35 38 37 39 39 37 37 36 36 38 39 39 39 40 40 41 42 43 44 46 47 49 51 52 53 56 57 60 60 60 60 60 61 60 59 58 60 60 60 57
37 35 34 34 39 40 39 40 38 37 36 37 39 40 40 40 39 40 41 42 43 43 45 47 49 51 51 52 54 57 60 60 60 58 60 59 58 57 57 57 54 42 45 45
Lifted_Index
7 7 7 7 7 7 7 6 6 7 7 7 6 6 7 7 8 8 8 8 8 8 8 8 8 7 7 6 6 4 1 -3 -5 -5 -4 -3 -2 -2 -1 -1 -2 -2 -2 -2
7 7 7 7 7 7 7 6 6 7 8 7 6 6 6 7 7 8 8 8 8 8 8 8 8 7 7 6 6 5 3 -0 -3 -4 -4 -4 -4 -3 -3 -3 -3 -3 -3 -3
6 6 7 7 7 7 7 7 7 7 7 7 6 5 5 6 7 7 8 9 9 9 9 9 8 7 7 7 6 6 5 3 1 -2 -4 -5 -5 -5 -4 -4 -5 -5 -5 -4
6 6 6 6 6 7 7 7 7 7 7 6 6 4 5 6 6 7 8 9 9 9 9 9 8 8 8 7 7 6 5 4 3 1 -2 -4 -5 -6 -6 -5 -6 -6 -6 -6
5 5 5 5 6 6 6 7 7 7 6 5 5 4 4 5 6 7 8 8 8 8 8 8 9 9 9 9 8 7 6 5 4 2 1 -2 -4 -5 -6 -6 -6 -6 -6 -6
3 3 4 4 5 6 6 6 6 6 5 4 4 4 4 5 6 7 8 8 7 7 8 8 9 9 9 9 9 8 7 6 4 4 2 0 -2 -3 -4 -5 -6 -6 -6 -6
2 2 3 3 4 5 5 5 4 3 2 3 4 4 4 5 7 7 8 7 7 7 7 8 9 9 9 9 8 8 8 7 6 5 4 2 -0 -2 -3 -4 -5 -5 -5 -6
2 2 2 2 3 3 4 4 3 2 2 3 4 4 4 6 6 6 6 6 7 7 8 8 8 9 9 8 8 8 8 7 7 6 5 3 1 -1 -3 -4 -4 -4 -5 -5
2 2 2 2 2 3 3 4 4 3 2 2 3 3 4 5 5 5 5 5 6 7 8 8 8 9 9 8 8 7 8 7 7 6 6 4 2 0 -2 -4 -4 -4 -4 -4
1 1 2 2 2 2 3 3 3 3 2 1 1 2 3 4 4 4 4 5 5 6 6 6 7 8 8 7 7 7 7 7 7 7 6 5 3 1 -1 -3 -4 -4 -4 -4
1 1 2 2 2 2 3 3 3 3 2 2 1 2 3 4 4 4 4 4 3 3 3 3 4 5 5 6 6 6 6 6 7 7 7 5 4 1 -0 -2 -2 -3 -4 -4
1 1 2 2 2 2 2 3 3 3 3 3 2 2 3 4 3 4 3 3 2 2 1 1 2 2 2 3 4 5 5 5 6 7 6 5 4 2 0 -1 -2 -3 -4 -4
1 2 2 2 2 2 2 2 2 3 3 3 2 2 3 3 3 3 3 2 2 1 1 1 2 1 1 1 2 3 4 5 5 5 5 4 3 1 0 -1 -2 -3 -4 -4
2 2 2 2 2 2 2 2 2 2 3 3 3 3 2 2 2 2 2 2 2 2 2 2 2 2 1 1 1 2 3 4 4 3 3 3 2 1 -0 -1 -2 -3 -4 -4
2 2 1 2 2 2 2 2 2 2 2 2 3 3 2 2 2 1 2 2 2 2 2 2 2 2 2 1 1 1 2 3 3 3 2 1 1 -0 -1 -2 -3 -3 -4 -4
2 2 2 2 2 2 2 1 1 1 2 2 2 2 2 1 1 1 2 2 3 3 3 3 3 2 2 2 1 1 1 1 2 3 2 0 -1 -1 -2 -2 -3 -3 -4 -5
2 2 2 2 1 1 1 1 1 1 1 1 2 2 1 1 1 2 2 3 4 4 4 3 3 3 3 2 2 1 0 0 1 2 1 -1 -2 -2 -2 -3 -3 -4 -4 -5
2 2 2 1 1 1 1 1 1 1 1 1 1 2 2 2 2 2 3 4 4 4 4 4 4 3 3 2 2 1 0 -0 0 1 0 -2 -3 -3 -3 -3 -4 -4 -5 -5
2 1 1 1 1 1 1 1 1 1 2 2 2 2 2 3 3 4 4 4 5 5 5 5 4 4 3 3 2 2 1 0 -0 -0 -1 -3 -3 -3 -3 -4 -4 -4 -5 -5
1 1 1 1 1 1 1 1 1 2 2 2 3 3 3 4 5 5 5 5 6 6 6 5 5 4 4 3 3 2 2 1 -0 -1 -2 -3 -4 -4 -4 -4 -4 -4 -4 -4
1 1 1 1 1 1 1 1 2 2 2 3 3 3 4 5 6 6 6 6 6 6 6 5 5 4 4 3 3 2 1 1 -0 -1 -2 -4 -4 -4 -4 -4 -4 -4 -4 -3
2 1 1 1 1 1 1 2 2 2 2 3 3 4 5 6 6 7 6 6 6 6 5 5 4 4 3 3 2 2 1 0 -1 -2 -3 -4 -4 -4 -3 -4 -4 -3 -3 -2
2 2 1 1 1 1 2 2 2 2 3 3 4 5 6 7 7 7 6 5 5 5 4 4 3 3 3 2 1 1 1 -0 -1 -2 -3 -3 -3 -3 -3 -3 -3 -3 -2 -1
2 2 1 1 2 2 2 2 2 3 3 4 5 6 7 7 7 6 5 5 4 4 3 3 3 3 3 2 2 1 1 -0 -1 -2 -2 -2 -3 -3 -3 -3 -2 -1 -0 0
2 1 1 1 2 2 2 2 3 4 5 5 6 6 7 7 7 6 5 4 4 4 3 3 3 4 4 4 3 2 1 -0 -1 -2 -2 -2 -2 -2 -2 -1 -1 -0 0 1
1 1 1 1 2 2 2 3 4 5 6 6 6 6 7 7 7 6 5 4 4 4 4 3 3 4 5 4 3 2 0 -0 -1 -1 -2 -2 -2 -1 -1 -0 -0 0 1 1